Alma, MI

9:10 AM EST on January 17, 2018 (GMT -0500)
Gratiot Community

Weather History for KAMN - December, 2013

Change the Weather History Date:

Thursday, December 5, 2013

  Actual Average Record
Temperature  
Mean Temperature 41 °F -  
Max Temperature 55 °F 36 °F 66 °F (2001)
Min Temperature 27 °F 22 °F 7 °F (1991)
Degree Days  
Heating Degree Days 24    
Moisture  
Dew Point 30 °F    
Average Humidity 73    
Maximum Humidity 88    
Minimum Humidity 56    
Precipitation  
Precipitation 0.00 in - - ()
Sea Level Pressure  
Sea Level Pressure 29.83 in    
Wind  
Wind Speed 14 mph (WSW)    
Max Wind Speed 25 mph    
Max Gust Speed 32 mph    
Visibility 10 miles    
Events      
Averages and records for this station are not official NWS values.
T = Trace of Precipitation, MM = Missing Value Source: NWS Daily Summary

Daily Weather History Graph

Daily Weather History Graph

Search for Another Location

Airport or City:

Trip Planner

Search our weather history database for the weather conditions in past years. The results will help you decide how hot, cold, wet, or windy it might be!

Date:

Astronomy

Dec. 05, 2013 Rise Set
Actual Time 7:55 AM EST 5:03 PM EST
Civil Twilight 7:23 AM EST 5:35 PM EST
Nautical Twilight 6:47 AM EST 6:11 PM EST
Astronomical Twilight 6:13 AM EST 6:45 PM EST
Moon 10:12 AM EST (12/5) 8:25 PM EST (12/5)
Length of Visible Light 10h 11m
Length of Day
9h 07m
Waxing Crescent, 10% of the Moon is Illuminated
Dec 5
Waxing Crescent
Dec 9
First Quarter
Dec 17
Full
Dec 25
Last Quarter
Jan 1
New

Hourly Weather History & Observations

Time (EST) Temp. Windchill Dew Point Humidity Pressure Visibility Wind Dir Wind Speed Gust Speed Precip Events Conditions
12:10 AM 55.8 °F - 52.0 °F 87% 29.55 in 7.0 mi SSW 8.1 mph - N/A   Clear
12:30 AM 55.0 °F - 51.6 °F 88% 29.54 in 7.0 mi SSW 11.5 mph 16.1 mph N/A   Scattered Clouds
12:50 AM 55.6 °F - 51.8 °F 87% 29.55 in 7.0 mi SW 10.4 mph 17.3 mph N/A   Mostly Cloudy
1:10 AM 55.9 °F - 51.3 °F 84% 29.55 in 7.0 mi SW 10.4 mph 16.1 mph N/A   Overcast
1:30 AM 55.6 °F - 51.3 °F 85% 29.56 in 7.0 mi SW 10.4 mph 17.3 mph N/A   Overcast
1:51 AM 55.8 °F - 51.1 °F 84% 29.55 in 7.0 mi SW 12.7 mph 21.9 mph N/A   Overcast
2:11 AM 55.6 °F - 50.9 °F 84% 29.55 in 7.0 mi SW 15.0 mph 21.9 mph N/A   Overcast
2:31 AM 55.6 °F - 50.5 °F 83% 29.55 in 7.0 mi SW 15.0 mph 23.0 mph N/A   Overcast
2:51 AM 55.4 °F - 50.4 °F 83% 29.58 in 7.0 mi WSW 16.1 mph 23.0 mph N/A   Overcast
3:11 AM 52.2 °F - 48.6 °F 88% 29.59 in 7.0 mi WSW 17.3 mph 25.3 mph N/A   Overcast
3:31 AM 50.4 °F - 44.6 °F 81% 29.59 in 10.0 mi WSW 13.8 mph 26.5 mph N/A   Overcast
3:51 AM 49.1 °F - 43.7 °F 82% 29.60 in 10.0 mi SW 11.5 mph 18.4 mph N/A   Overcast
4:11 AM 47.7 °F - 41.9 °F 80% 29.61 in 10.0 mi SW 16.1 mph 24.2 mph N/A   Overcast
4:31 AM 47.1 °F - 41.2 °F 80% 29.61 in 10.0 mi SW 17.3 mph 26.5 mph N/A   Overcast
4:52 AM 45.9 °F 38.5 °F 39.7 °F 79% 29.62 in 10.0 mi WSW 18.4 mph 26.5 mph N/A   Overcast
5:12 AM 45.1 °F 38.8 °F 39.4 °F 80% 29.63 in 10.0 mi WSW 13.8 mph - N/A   Overcast
5:32 AM 43.3 °F 35.8 °F 37.4 °F 80% 29.64 in 10.0 mi SW 16.1 mph 29.9 mph N/A   Overcast
5:52 AM 43.0 °F 34.0 °F 37.8 °F 82% 29.67 in 10.0 mi WSW 21.9 mph 29.9 mph N/A   Overcast
6:12 AM 42.8 °F 34.5 °F 38.3 °F 84% 29.69 in 10.0 mi WSW 18.4 mph 25.3 mph N/A   Overcast
6:32 AM 41.9 °F 33.1 °F 37.6 °F 85% 29.70 in 10.0 mi WSW 19.6 mph 27.6 mph N/A   Overcast
6:52 AM 40.8 °F 31.1 °F 35.4 °F 81% 29.71 in 10.0 mi WSW 21.9 mph 32.2 mph N/A   Overcast
7:12 AM 39.7 °F 30.6 °F 34.5 °F 82% 29.73 in 10.0 mi WSW 18.4 mph 27.6 mph N/A   Overcast
7:32 AM 39.4 °F 30.4 °F 34.2 °F 82% 29.72 in 10.0 mi WSW 17.3 mph 29.9 mph N/A   Overcast
7:52 AM 38.8 °F 28.5 °F 33.4 °F 81% 29.72 in 10.0 mi WSW 21.9 mph 26.5 mph N/A   Overcast
8:13 AM 38.5 °F 29.9 °F 32.9 °F 80% 29.73 in 10.0 mi WSW 15.0 mph 23.0 mph N/A   Overcast
8:33 AM 38.5 °F 28.6 °F 32.9 °F 80% 29.74 in 10.0 mi WSW 19.6 mph 27.6 mph N/A   Overcast
8:53 AM 38.7 °F 30.5 °F 32.5 °F 79% 29.75 in 10.0 mi WSW 13.8 mph 26.5 mph N/A   Overcast
9:13 AM 37.9 °F 29.6 °F 32.9 °F 82% 29.76 in 10.0 mi WSW 13.8 mph 20.7 mph N/A   Overcast
9:33 AM 37.9 °F 28.9 °F 32.4 °F 80% 29.78 in 10.0 mi West 16.1 mph 23.0 mph N/A   Overcast
9:53 AM 37.8 °F 27.7 °F 32.0 °F 80% 29.78 in 10.0 mi WSW 19.6 mph 26.5 mph N/A   Overcast
10:13 AM 38.5 °F 29.9 °F 32.0 °F 78% 29.79 in 10.0 mi WSW 15.0 mph 24.2 mph N/A   Overcast
10:33 AM 38.3 °F 28.7 °F 31.5 °F 76% 29.81 in 10.0 mi WSW 18.4 mph 25.3 mph N/A   Overcast
10:53 AM 38.3 °F 29.7 °F 30.6 °F 74% 29.82 in 10.0 mi WSW 15.0 mph 23.0 mph N/A   Overcast
11:14 AM 37.8 °F 28.3 °F 30.2 °F 74% 29.83 in 10.0 mi WSW 17.3 mph 25.3 mph N/A   Overcast
11:34 AM 37.4 °F 28.2 °F 29.3 °F 73% 29.83 in 10.0 mi WSW 16.1 mph 23.0 mph N/A   Overcast
11:54 AM 37.4 °F 27.8 °F 29.5 °F 73% 29.84 in 10.0 mi WSW 17.3 mph 21.9 mph N/A   Overcast
12:14 PM 38.1 °F 27.9 °F 28.0 °F 67% 29.84 in 10.0 mi West 20.7 mph 27.6 mph N/A   Overcast
12:34 PM 36.7 °F 26.3 °F 24.8 °F 62% 29.84 in 10.0 mi WSW 19.6 mph 28.8 mph N/A   Scattered Clouds
12:49 PM 37.0 °F 25.4 °F 23.9 °F 59% 29.85 in 10.0 mi West 25.3 mph 29.9 mph N/A   Scattered Clouds
1:09 PM 35.8 °F 26.1 °F 25.3 °F 66% 29.86 in 10.0 mi WSW 16.1 mph 25.3 mph N/A   Scattered Clouds
1:29 PM 36.9 °F 26.5 °F 25.9 °F 64% 29.87 in 10.0 mi West 19.6 mph 25.3 mph N/A   Scattered Clouds
1:49 PM 37.9 °F 29.2 °F 26.1 °F 62% 29.88 in 10.0 mi WSW 15.0 mph 23.0 mph N/A   Mostly Cloudy
2:10 PM 36.1 °F 28.7 °F 23.7 °F 61% 29.89 in 10.0 mi West 10.4 mph 23.0 mph N/A   Scattered Clouds
2:30 PM 36.3 °F 27.5 °F 22.8 °F 58% 29.89 in 10.0 mi WSW 13.8 mph 20.7 mph N/A   Scattered Clouds
2:50 PM 35.6 °F 26.2 °F 22.8 °F 60% 29.90 in 10.0 mi West 15.0 mph 19.6 mph N/A   Scattered Clouds
3:10 PM 34.9 °F 24.6 °F 20.5 °F 56% 29.91 in 10.0 mi West 17.3 mph 24.2 mph N/A   Clear
3:30 PM 34.2 °F 24.8 °F 20.3 °F 57% 29.93 in 10.0 mi West 13.8 mph 23.0 mph N/A   Clear
3:50 PM 33.4 °F 25.4 °F 20.8 °F 60% 29.94 in 10.0 mi West 10.4 mph 21.9 mph N/A   Clear
4:10 PM 33.1 °F 24.9 °F 22.5 °F 65% 29.96 in 10.0 mi West 10.4 mph - N/A   Scattered Clouds
4:30 PM 32.7 °F 23.0 °F 20.7 °F 61% 29.96 in 10.0 mi West 13.8 mph 21.9 mph N/A   Scattered Clouds
4:51 PM 32.0 °F 21.6 °F 20.3 °F 62% 29.98 in 10.0 mi West 15.0 mph - N/A   Clear
5:11 PM 31.6 °F 20.7 °F 20.1 °F 62% 29.98 in 10.0 mi West 16.1 mph 21.9 mph N/A   Clear
5:31 PM 31.1 °F 21.9 °F 20.3 °F 64% 29.99 in 10.0 mi West 11.5 mph 20.7 mph N/A   Clear
5:51 PM 30.7 °F 22.6 °F 20.8 °F 67% 30.01 in 10.0 mi West 9.2 mph - N/A   Clear
6:11 PM 30.6 °F 20.2 °F 21.2 °F 68% 30.01 in 10.0 mi WSW 13.8 mph 19.6 mph N/A   Clear
6:31 PM 30.0 °F 19.5 °F 19.9 °F 66% 30.01 in 10.0 mi WSW 13.8 mph - N/A   Clear
6:51 PM 30.0 °F 19.5 °F 20.5 °F 68% 30.02 in 10.0 mi West 13.8 mph 18.4 mph N/A   Clear
7:11 PM 29.8 °F 23.0 °F 21.2 °F 70% 30.03 in 10.0 mi WSW 6.9 mph - N/A   Clear
7:31 PM 29.7 °F 18.6 °F 21.4 °F 71% 30.04 in 10.0 mi WSW 15.0 mph 18.4 mph N/A   Clear
7:52 PM 29.7 °F 19.1 °F 20.3 °F 68% 30.06 in 10.0 mi WSW 13.8 mph 20.7 mph N/A   Clear
8:12 PM 29.7 °F 20.1 °F 20.3 °F 68% 30.07 in 10.0 mi West 11.5 mph 17.3 mph N/A   Clear
8:32 PM 29.3 °F 19.1 °F 20.8 °F 71% 30.08 in 10.0 mi West 12.7 mph 16.1 mph N/A   Clear
8:52 PM 29.3 °F 19.1 °F 20.8 °F 71% 30.06 in 10.0 mi West 12.7 mph - N/A   Clear
9:12 PM 29.3 °F 18.2 °F 20.5 °F 70% 30.07 in 10.0 mi West 15.0 mph - N/A   Clear
9:32 PM 29.3 °F 18.2 °F 19.9 °F 68% 30.07 in 10.0 mi West 15.0 mph 20.7 mph N/A   Clear
9:52 PM 29.3 °F 19.1 °F 19.4 °F 67% 30.09 in 10.0 mi West 12.7 mph 18.4 mph N/A   Clear
10:12 PM 28.9 °F 18.6 °F 19.4 °F 68% 30.09 in 10.0 mi West 12.7 mph 18.4 mph N/A   Clear
10:33 PM 28.8 °F 19.0 °F 19.2 °F 68% 30.10 in 10.0 mi West 11.5 mph 20.7 mph N/A   Clear
10:53 PM 28.8 °F 17.9 °F 18.9 °F 67% 30.12 in 10.0 mi West 13.8 mph 21.9 mph N/A   Clear
11:13 PM 28.4 °F 18.5 °F 18.5 °F 66% 30.11 in 10.0 mi West 11.5 mph 18.4 mph N/A   Clear
11:33 PM 27.7 °F 17.6 °F 18.3 °F 68% 30.12 in 10.0 mi West 11.5 mph 16.1 mph N/A   Clear
11:53 PM 27.1 °F 18.2 °F 18.5 °F 70% 30.12 in 10.0 mi WNW 9.2 mph - N/A   Clear